Вернуться в каталог

CZ-6A DEB

АктивенSSO
NORAD 54304·DEBRIS·🇨🇳 China

Запущен Nov 11, 2022 с Taiyuan Satellite Launch Center

Loading…

Ближайшие Пролёты (ближайшие 24 часа)

TLE

СвежийSource: Space-Track

Эпоха: Sep 14, 2026, 06:39 UTC

1 54304U 22151AX  26257.27773014  .00001174  00000-0  60391-3 0  9995
2 54304  98.8391 264.9208 0043721  59.4332 301.1145 14.16705415197433

Отслеживайте CZ-6A DEB в реальном времени с AllMySat

Download on the App Store